Overview Statistics Trail Chart Weather Telemetry Raw packets
 

This is the latest recevied weather packets stored in our database for station/object SV9TNF-51. If no packets are shown the sender has not sent any weather packets the latest 10 day(s).

<< 104 105 106 107 108 109 110 >>
Time Temp. Humidity Pressure Rain* Wind** Luminosity Snow
1787876807 26.11° C 63% 1012.2 hPa 0 mm 6.71 m/s, 322° - -
1787876507 26.67° C 63% 1012.2 hPa 0 mm 4.92 m/s, 84° - -
1787876206 26.67° C 63% 1012.2 hPa 0 mm 10.28 m/s, 349° - -
1787875907 26.67° C 63% 1012.2 hPa 0 mm 8.05 m/s, 354° - -
1787875607 26.67° C 61% 1012.2 hPa 0 mm 6.26 m/s, 4° - -
1787875307 26.67° C 62% 1012.2 hPa 0 mm 2.68 m/s, 318° - -
1787875006 26.11° C 64% 1012.5 hPa 0 mm 3.13 m/s, 134° - -
1787874706 26.67° C 64% 1012.5 hPa 0 mm 1.79 m/s, 201° - -
1787874406 26.11° C 62% 1012.2 hPa 0 mm 6.26 m/s, 116° - -
1787874106 26.67° C 63% 1012.2 hPa 0 mm 5.36 m/s, 314° - -
1787873806 26.67° C 62% 1012.2 hPa 0 mm 5.81 m/s, 326° - -
1787873506 26.67° C 61% 1012.5 hPa 0 mm 2.68 m/s, 59° - -
1787873206 26.67° C 61% 1012.5 hPa 0 mm 5.81 m/s, 345° - -
1787872906 26.67° C 61% 1012.5 hPa 0 mm 6.26 m/s, 313° - -
1787872605 26.67° C 62% 1012.5 hPa 0 mm 6.26 m/s, 343° - -
1787872305 26.67° C 62% 1013.2 hPa 0 mm 7.6 m/s, 320° - -
1787872005 26.67° C 61% 1013.2 hPa 0 mm 8.05 m/s, 356° - -
1787871705 26.67° C 62% 1013.2 hPa 0 mm 6.71 m/s, 335° - -
1787871405 26.67° C 61% 1013.2 hPa 0 mm 5.81 m/s, 296° - -
1787871105 26.67° C 61% 1013.2 hPa 0 mm 2.24 m/s, 334° - -
1787870805 26.67° C 60% 1013.2 hPa 0 mm 0 m/s - -
1787870505 27.22° C 60% 1013.2 hPa 0 mm 4.47 m/s, 337° - -
1787870205 27.22° C 60% 1013.2 hPa 0 mm 6.71 m/s, 301° - -
1787869905 27.22° C 60% 1013.6 hPa 0 mm 0 m/s - -
1787869604 27.22° C 60% 1013.6 hPa 0 mm 0 m/s - -

* Rain latest hour (hover to see other rain measurements)
** Current wind speed in m/s (hover to see current wind gust speed)